User: anonymous   Login
Location: Unspecified
(0.0000°N, 0.0000°E)
Time: 20:05:12
(UTC+00:00)
Language:

COSMOS 2391 - Orbit

View from above orbital plane
View from above orbital plane
View from above satellite
View from above satellite

Ground track
Ground track

The orbit data is extracted from the following two-line orbital elements,

1 27465U 02036B   24151.58612950  .00000027  00000-0  12002-3 0  9991
2 27465  82.4827  89.2518 0027519  88.3071 272.1162 12.44921624994818
Epoch (UTC): 30 May 2024 14:04:01
Eccentricity: 0.0027519
inclination: 82.4827°
perigee height: 1464 km
apogee height: 1507 km
right ascension of ascending node: 89.2518°
argument of perigee: 88.3071°
revolutions per day: 12.44921624
mean anomaly at epoch: 272.1162°
orbit number at epoch: 99481

The dashed part of the orbit path shows where the satellite is in the earth's shadow,  

DLR